This is the latest recevied weather packets stored in our database for station/object CX5ACA-13. If no packets are shown the sender has not sent any weather packets the latest 10 day(s).
| Time | Temp. | Humidity | Pressure | Rain* | Wind** | Luminosity | Snow |
|---|---|---|---|---|---|---|---|
| 1777821522 | 17.78° C | 45% | 1023.1 hPa | 0 mm | - | 510 W/m² | - |
| 1777821220 | 17.78° C | 46% | 1023.3 hPa | 0 mm | - | 504 W/m² | - |
| 1777820917 | 16.67° C | 47% | 1023.4 hPa | 0 mm | - | 503 W/m² | - |
| 1777820613 | 17.22° C | 44% | 1023.5 hPa | 0 mm | - | 507 W/m² | - |
| 1777820310 | 17.22° C | 47% | 1023.5 hPa | 0 mm | - | 501 W/m² | - |
| 1777820008 | 17.78° C | 47% | 1023.4 hPa | 0 mm | - | 494 W/m² | - |
| 1777819704 | 16.67° C | 49% | 1023.6 hPa | 0 mm | - | 490 W/m² | - |
| 1777819403 | 16.67° C | 50% | 1023.7 hPa | 0 mm | - | 484 W/m² | - |
| 1777819099 | 17.22° C | 52% | 1023.8 hPa | 0 mm | - | 478 W/m² | - |
| 1777818796 | 17.22° C | 51% | 1023.8 hPa | 0 mm | - | 470 W/m² | - |
| 1777818492 | 16.11° C | 54% | 1023.8 hPa | 0 mm | - | 466 W/m² | - |
| 1777818189 | 16.67° C | 52% | 1024.1 hPa | 0 mm | - | 461 W/m² | - |
| 1777817886 | 16.67° C | 53% | 1024 hPa | 0 mm | - | 451 W/m² | - |
| 1777817583 | 17.22° C | 53% | 1024.2 hPa | 0 mm | - | 446 W/m² | - |
| 1777817280 | 16.67° C | 52% | 1024.3 hPa | 0 mm | - | 436 W/m² | - |
| 1777816977 | 16.67° C | 52% | 1024.3 hPa | 0 mm | - | 431 W/m² | - |
| 1777816673 | 16.67° C | 56% | 1024.6 hPa | 0 mm | - | 369 W/m² | - |
| 1777816370 | 16.11° C | 55% | 1024.4 hPa | 0 mm | - | 413 W/m² | - |
| 1777816068 | 16.11° C | 56% | 1024.6 hPa | 0 mm | - | 401 W/m² | - |
| 1777815766 | 16.67° C | 54% | 1024.7 hPa | 0 mm | - | 392 W/m² | - |
| 1777815463 | 16.67° C | 55% | 1024.4 hPa | 0 mm | - | 383 W/m² | - |
| 1777815160 | 16.11° C | 56% | 1024.5 hPa | 0 mm | - | 376 W/m² | - |
| 1777814856 | 16.67° C | 55% | 1024.6 hPa | 0 mm | - | 363 W/m² | - |
| 1777814552 | 15.56° C | 56% | 1024.6 hPa | 0 mm | - | 353 W/m² | - |
| 1777814250 | 15.56° C | 57% | 1024.6 hPa | 0 mm | - | 346 W/m² | - |
* Rain latest hour (hover to see other rain measurements)
** Current wind speed in m/s (hover to see current wind gust speed)